Weather History for KCKC - November, 2012

Change the Weather History Date:

Friday, November 16, 2012

  Actual Average Record
Temperature  
Mean Temperature 21 °F -  
Max Temperature 32 °F 31 °F 42 °F (2004)
Min Temperature 10 °F 20 °F -2 °F (2002)
Degree Days  
Heating Degree Days 44    
Moisture  
Dew Point 16 °F    
Average Humidity 77    
Maximum Humidity 93    
Minimum Humidity 64    
Precipitation  
Precipitation 0.00 in - - ()
Sea Level Pressure  
Sea Level Pressure 30.40 in    
Wind  
Wind Speed 4 mph (SE)    
Max Wind Speed 9 mph    
Max Gust Speed -    
Visibility 10 miles    
Events      
Averages and records for this station are not official NWS values.
T = Trace of Precipitation, MM = Missing Value Source: NWS Daily Summary

Daily Weather History Graph

Daily Weather History Graph

Search for Another Location

Airport or City:

Trip Planner

Search our weather history database for the weather conditions in past years. The results will help you decide how hot, cold, wet, or windy it might be!

Date:

Astronomy

Nov. 16, 2012 Rise Set
Actual Time 7:09 AM CST 4:22 PM CST
Civil Twilight 6:35 AM CST 4:56 PM CST
Nautical Twilight 5:57 AM CST 5:34 PM CST
Astronomical Twilight 5:21 AM CST 6:10 PM CST
Moon 10:08 AM CST (11/16) 7:19 PM CST (11/16)
Length of Visible Light 10h 20m
Length of Day
9h 12m
Waxing Crescent, 12% of the Moon is Illuminated
Nov 16
Waxing Crescent
Nov 20
First Quarter
Nov 28
Full
Dec 6
Last Quarter
Dec 13
New

Hourly Weather History & Observations

Time (CST) Temp. Windchill Dew Point Humidity Pressure Visibility Wind Dir Wind Speed Gust Speed Precip Events Conditions
12:14 AM 17.6 °F 9.3 °F 8.6 °F 68% 30.40 in 10.0 mi NNW 5.8 mph - N/A   Clear
12:33 AM 17.6 °F 8.2 °F 8.6 °F 68% 30.40 in 10.0 mi NNW 6.9 mph - N/A   Clear
12:54 AM 17.6 °F 8.2 °F 8.6 °F 68% 30.41 in 10.0 mi NNW 6.9 mph - N/A   Clear
1:14 AM 17.6 °F 9.3 °F 8.6 °F 68% 30.41 in 10.0 mi NNW 5.8 mph - N/A   Clear
1:33 AM 17.6 °F - 8.6 °F 68% 30.41 in 10.0 mi Calm Calm - N/A   Clear
1:54 AM 15.8 °F 7.2 °F 8.6 °F 73% 30.41 in 10.0 mi North 5.8 mph - N/A   Clear
2:14 AM 15.8 °F 8.6 °F 8.6 °F 73% 30.42 in 10.0 mi North 4.6 mph - N/A   Clear
2:33 AM 15.8 °F 8.6 °F 8.6 °F 73% 30.42 in 10.0 mi North 4.6 mph - N/A   Clear
2:53 AM 15.8 °F - 8.6 °F 73% 30.42 in 10.0 mi Calm Calm - N/A   Clear
3:14 AM 12.2 °F 4.3 °F 6.8 °F 79% 30.42 in 10.0 mi North 4.6 mph - N/A   Clear
3:33 AM 12.2 °F 1.7 °F 8.6 °F 85% 30.43 in 10.0 mi NNW 6.9 mph - N/A   Clear
3:54 AM 14.0 °F 5.1 °F 8.6 °F 79% 30.43 in 10.0 mi North 5.8 mph - N/A   Clear
4:13 AM 14.0 °F 8.2 °F 8.6 °F 79% 30.42 in 10.0 mi North 3.5 mph - N/A   Clear
4:34 AM 12.2 °F - 8.6 °F 85% 30.42 in 10.0 mi Calm Calm - N/A   Clear
4:54 AM 12.2 °F - 6.8 °F 79% 30.42 in 10.0 mi Calm Calm - N/A   Clear
5:14 AM 10.4 °F 2.2 °F 6.8 °F 85% 30.43 in 10.0 mi North 4.6 mph - N/A   Clear
5:33 AM 10.4 °F 4.0 °F 8.6 °F 92% 30.43 in 10.0 mi NNW 3.5 mph - N/A   Clear
5:54 AM 10.4 °F - 6.8 °F 85% 30.43 in 10.0 mi Calm Calm - N/A   Clear
6:14 AM 10.4 °F - 8.6 °F 92% 30.42 in 10.0 mi Calm Calm - N/A   Clear
6:34 AM 12.2 °F - 8.6 °F 85% 30.43 in 10.0 mi Calm Calm - N/A   Clear
6:53 AM 10.4 °F - 6.8 °F 85% 30.43 in 10.0 mi Calm Calm - N/A   Clear
7:14 AM 10.4 °F - 6.8 °F 85% 30.43 in 10.0 mi Calm Calm - N/A   Clear
7:34 AM 12.2 °F - 6.8 °F 79% 30.44 in 10.0 mi Calm Calm - N/A   Clear
7:53 AM 12.2 °F - 8.6 °F 85% 30.44 in 10.0 mi Calm Calm - N/A   Clear
8:14 AM 19.4 °F - 12.2 °F 74% 30.45 in 10.0 mi Calm Calm - N/A   Clear
8:34 AM 21.2 °F 16.4 °F 14.0 °F 74% 30.45 in 10.0 mi SE 3.5 mph - N/A   Clear
8:53 AM 23.0 °F - 15.8 °F 74% 30.45 in 10.0 mi Calm Calm - N/A   Clear
9:14 AM 24.8 °F 20.5 °F 15.8 °F 69% 30.45 in 10.0 mi SSE 3.5 mph - N/A   Clear
9:33 AM 26.6 °F 22.6 °F 17.6 °F 69% 30.45 in 10.0 mi SSE 3.5 mph - N/A   Clear
9:53 AM 26.6 °F 20.0 °F 17.6 °F 69% 30.46 in 10.0 mi South 5.8 mph - N/A   Clear
10:14 AM 26.6 °F 20.0 °F 17.6 °F 69% 30.46 in 10.0 mi South 5.8 mph - N/A   Scattered Clouds
10:34 AM 28.4 °F 20.4 °F 19.4 °F 69% 30.47 in 10.0 mi SSE 8.1 mph - N/A   Scattered Clouds
10:53 AM 28.4 °F 19.7 °F 19.4 °F 69% 30.47 in 10.0 mi South 9.2 mph - N/A   Mostly Cloudy
11:14 AM 28.4 °F 20.4 °F 19.4 °F 69% 30.46 in 10.0 mi South 8.1 mph - N/A   Mostly Cloudy
11:34 AM 28.4 °F 21.2 °F 19.4 °F 69% 30.46 in 10.0 mi South 6.9 mph - N/A   Overcast
11:49 AM 28.4 °F 21.2 °F 19.4 °F 69% 30.45 in 10.0 mi SSE 6.9 mph - N/A   Overcast
12:14 PM 30.2 °F 23.4 °F 19.4 °F 64% 30.44 in 10.0 mi South 6.9 mph - N/A   Mostly Cloudy
12:29 PM 28.4 °F - 19.4 °F 69% 30.44 in 10.0 mi North - - N/A   Mostly Cloudy
12:54 PM 30.2 °F 23.4 °F 19.4 °F 64% 30.43 in 10.0 mi SSE 6.9 mph - N/A   Scattered Clouds
1:14 PM 30.2 °F 24.3 °F 21.2 °F 69% 30.43 in 10.0 mi SSE 5.8 mph - N/A   Clear
1:33 PM 32.0 °F 26.4 °F 21.2 °F 64% 30.43 in 10.0 mi SSW 5.8 mph - N/A   Clear
1:54 PM 30.2 °F 23.4 °F 21.2 °F 69% 30.42 in 10.0 mi South 6.9 mph - N/A   Clear
2:13 PM 30.2 °F 22.6 °F 21.2 °F 69% 30.42 in 10.0 mi South 8.1 mph - N/A   Scattered Clouds
2:34 PM 28.4 °F 21.2 °F 21.2 °F 74% 30.41 in 10.0 mi SSE 6.9 mph - N/A   Scattered Clouds
2:50 PM 28.4 °F 22.2 °F 21.2 °F 74% 30.40 in 10.0 mi South 5.8 mph - N/A   Mostly Cloudy
3:13 PM 28.4 °F 22.2 °F 21.2 °F 74% 30.40 in 10.0 mi SSE 5.8 mph - N/A   Mostly Cloudy
3:34 PM 28.4 °F 21.2 °F 21.2 °F 74% 30.40 in 10.0 mi SSE 6.9 mph - N/A   Overcast
3:53 PM 28.4 °F 22.2 °F 21.2 °F 74% 30.38 in 10.0 mi SSE 5.8 mph - N/A   Overcast
4:13 PM 26.6 °F 22.6 °F 21.2 °F 80% 30.38 in 10.0 mi SSE 3.5 mph - N/A   Mostly Cloudy
4:34 PM 26.6 °F - 21.2 °F 80% 30.38 in 10.0 mi Calm Calm - N/A   Mostly Cloudy
4:53 PM 26.6 °F - 21.2 °F 80% 30.38 in 10.0 mi Calm Calm - N/A   Overcast
5:13 PM 26.6 °F - 21.2 °F 80% 30.37 in 10.0 mi Calm Calm - N/A   Scattered Clouds
5:34 PM 24.8 °F - 21.2 °F 86% 30.37 in 10.0 mi Calm Calm - N/A   Clear
5:53 PM 24.8 °F - 21.2 °F 86% 30.36 in 10.0 mi Calm Calm - N/A   Clear
6:14 PM 24.8 °F 20.5 °F 21.2 °F 86% 30.37 in 10.0 mi SE 3.5 mph - N/A   Clear
6:33 PM 24.8 °F 20.5 °F 21.2 °F 86% 30.36 in 10.0 mi SE 3.5 mph - N/A   Clear
6:53 PM 24.8 °F 20.5 °F 21.2 °F 86% 30.36 in 10.0 mi ESE 3.5 mph - N/A   Clear
7:14 PM 24.8 °F - 21.2 °F 86% 30.36 in 10.0 mi Calm Calm - N/A   Clear
7:33 PM 24.8 °F 19.1 °F 19.4 °F 80% 30.36 in 10.0 mi ESE 4.6 mph - N/A   Clear
7:54 PM 24.8 °F 17.9 °F 19.4 °F 80% 30.35 in 10.0 mi ESE 5.8 mph - N/A   Clear
8:13 PM 24.8 °F 20.5 °F 19.4 °F 80% 30.35 in 10.0 mi East 3.5 mph - N/A   Clear
8:33 PM 24.8 °F 20.5 °F 21.2 °F 86% 30.34 in 10.0 mi East 3.5 mph - N/A   Clear
8:54 PM 24.8 °F 20.5 °F 19.4 °F 80% 30.33 in 10.0 mi ESE 3.5 mph - N/A   Clear
9:13 PM 24.8 °F 20.5 °F 19.4 °F 80% 30.33 in 10.0 mi ESE 3.5 mph - N/A   Clear
10:14 PM 26.6 °F 21.2 °F 21.2 °F 80% 30.33 in 10.0 mi ESE 4.6 mph - N/A   Clear
10:34 PM 26.6 °F 22.6 °F 21.2 °F 80% 30.33 in 10.0 mi East 3.5 mph - N/A   Clear
10:53 PM 26.6 °F 22.6 °F 23.0 °F 86% 30.33 in 10.0 mi ESE 3.5 mph - N/A   Clear
11:14 PM 26.6 °F 21.2 °F 24.8 °F 93% 30.32 in 10.0 mi SE 4.6 mph - N/A   Clear
11:34 PM 28.4 °F 23.3 °F 24.8 °F 86% 30.32 in 10.0 mi SE 4.6 mph - N/A   Clear
11:53 PM 28.4 °F 23.3 °F 24.8 °F 86% 30.32 in 10.0 mi SSE 4.6 mph - N/A   Clear